| time (UTC) | temp F | wind direction | speed MPH | gust MPH | rain 1hr in | rain 24hr in | rain mn in | humidity % | barometer mb |
| 20260503204551 | 60 | 126 | 5.0 | 10.0 | 0.00 | 0.00 | 0.00 | 42 | 1017.7 |
| 20260503203056 | 61 | 151 | 2.0 | 8.0 | 0.00 | 0.00 | 0.00 | 42 | 1017.9 |
| 20260503201552 | 62 | 140 | 5.0 | 11.0 | 0.00 | 0.00 | 0.00 | 44 | 1018.0 |
| 20260503200101 | 63 | 142 | 3.0 | 7.0 | 0.00 | 0.00 | 0.00 | 44 | 1018.0 |
| 20260503194602 | 62 | 143 | 5.0 | 12.0 | 0.00 | 0.00 | 0.00 | 37 | 1018.3 |
| 20260503193101 | 61 | 229 | 2.0 | 9.0 | 0.00 | 0.00 | 0.00 | 45 | 1018.5 |
| 20260503191602 | 60 | 248 | 6.0 | 11.0 | 0.00 | 0.00 | 0.00 | 42 | 1018.7 |
| 20260503190053 | 60 | 229 | 2.0 | 9.0 | 0.00 | 0.00 | 0.00 | 44 | 1018.8 |
| 20260503184601 | 60 | 43 | 5.0 | 11.0 | 0.00 | 0.00 | 0.00 | 43 | 1018.9 |
| 20260503183100 | 58 | 238 | 6.0 | 11.0 | 0.00 | 0.00 | 0.00 | 41 | 1019.0 |
| 20260503181610 | 58 | 238 | 5.0 | 10.0 | 0.00 | 0.00 | 0.00 | 41 | 1019.1 |
| 20260503180112 | 58 | 229 | 1.0 | 9.0 | 0.00 | 0.00 | 0.00 | 45 | 1019.3 |
| 20260503174559 | 58 | 205 | 3.0 | 10.0 | 0.00 | 0.00 | 0.00 | 43 | 1019.3 |
| 20260503173108 | 56 | 142 | 2.0 | 12.0 | 0.00 | 0.00 | 0.00 | 42 | 1019.4 |
| 20260503171553 | 56 | 236 | 2.0 | 10.0 | 0.00 | 0.00 | 0.00 | 44 | 1019.6 |
| 20260503150107 | 49 | 84 | 3.0 | 7.0 | 0.00 | 0.00 | 0.00 | 57 | 1020.9 |
| 20260503081553 | 35 | 59 | 0.0 | 2.0 | 0.00 | 0.00 | 0.00 | 86 | 1018.1 |
| 20260503071557 | 35 | 59 | 1.0 | 3.0 | 0.00 | 0.00 | 0.00 | 85 | 1017.7 |
| 20260503054553 | 37 | 0 | 0.0 | 2.0 | 0.00 | 0.00 | 0.00 | 80 | 1017.5 |
| 20260503053050 | 37 | 59 | 0.0 | 3.0 | 0.00 | 0.00 | 0.00 | 80 | 1017.7 |
| 20260503051556 | 38 | 59 | 0.0 | 3.0 | 0.00 | 0.00 | 0.00 | 79 | 1017.6 |
| 20260503050056 | 38 | 0 | 1.0 | 2.0 | 0.00 | 0.00 | 0.00 | 79 | 1017.6 |
| 20260503044607 | 38 | 0 | 1.0 | 3.0 | 0.00 | 0.00 | 0.00 | 79 | 1017.6 |
| 20260503043054 | 38 | 59 | 0.0 | 2.0 | 0.00 | 0.00 | 0.00 | 78 | 1017.5 |
| 20260503041550 | 38 | 59 | 1.0 | 2.0 | 0.00 | 0.00 | 0.00 | 77 | 1017.6 |
| 20260503034559 | 39 | 0 | 1.0 | 2.0 | 0.00 | 0.00 | 0.00 | 76 | 1017.2 |
| 20260503033057 | 40 | 0 | 0.0 | 2.0 | 0.00 | 0.00 | 0.00 | 74 | 1017.3 |
| 20260503031553 | 40 | 59 | 1.0 | 3.0 | 0.00 | 0.00 | 0.00 | 73 | 1017.0 |
| 20260503030124 | 41 | 0 | 0.0 | 2.0 | 0.00 | 0.00 | 0.00 | 71 | 1017.1 |
| 20260503024549 | 42 | 0 | 0.0 | 2.0 | 0.00 | 0.00 | 0.00 | 68 | 1017.0 |
| 20260503023054 | 43 | 59 | 0.0 | 3.0 | 0.00 | 0.00 | 0.00 | 67 | 1016.9 |
| 20260503021552 | 44 | 59 | 1.0 | 2.0 | 0.00 | 0.00 | 0.00 | 64 | 1016.8 |
| 20260503020052 | 45 | 59 | 0.0 | 3.0 | 0.00 | 0.00 | 0.00 | 63 | 1016.5 |
| 20260503014602 | 45 | 48 | 1.0 | 5.0 | 0.00 | 0.00 | 0.00 | 60 | 1016.3 |
| 20260503013055 | 45 | 0 | 1.0 | 4.0 | 0.00 | 0.00 | 0.00 | 60 | 1016.1 |
| 20260503011559 | 45 | 51 | 2.0 | 4.0 | 0.00 | 0.00 | 0.00 | 61 | 1016.1 |
| 20260503010104 | 45 | 19 | 1.0 | 3.0 | 0.00 | 0.00 | 0.00 | 60 | 1015.8 |
| 20260503004557 | 46 | 0 | 0.0 | 7.0 | 0.00 | 0.00 | 0.00 | 57 | 1015.7 |
| 20260503003118 | 47 | 38 | 1.0 | 4.0 | 0.00 | 0.00 | 0.00 | 58 | 1015.6 |
| 20260503001553 | 48 | 0 | 0.0 | 8.0 | 0.00 | 0.00 | 0.00 | 52 | 1015.3 |
| 20260503000058 | 49 | 96 | 2.0 | 8.0 | 0.00 | 0.00 | 0.00 | 48 | 1015.1 |
| 20260502234605 | 49 | 297 | 1.0 | 4.0 | 0.00 | 0.00 | 0.00 | 50 | 1014.9 |
| 20260502233104 | 50 | 235 | 0.0 | 7.0 | 0.00 | 0.00 | 0.00 | 50 | 1014.7 |
| 20260502231604 | 51 | 0 | 1.0 | 8.0 | 0.00 | 0.00 | 0.00 | 47 | 1014.5 |
| 20260502230050 | 51 | 220 | 3.0 | 11.0 | 0.00 | 0.00 | 0.00 | 44 | 1014.5 |
| 20260502224558 | 52 | 284 | 4.0 | 15.0 | 0.00 | 0.00 | 0.00 | 43 | 1014.5 |
| 20260502223053 | 53 | 229 | 1.0 | 11.0 | 0.00 | 0.00 | 0.00 | 41 | 1014.5 |
| 20260502221552 | 54 | 216 | 2.0 | 13.0 | 0.00 | 0.00 | 0.00 | 42 | 1014.3 |
| 20260502220050 | 53 | 234 | 6.0 | 14.0 | 0.00 | 0.00 | 0.00 | 42 | 1014.1 |
| 20260502214556 | 55 | 299 | 1.0 | 15.0 | 0.00 | 0.00 | 0.00 | 45 | 1014.0 |
| 20260502213053 | 54 | 239 | 4.0 | 20.0 | 0.00 | 0.00 | 0.00 | 42 | 1013.4 |
| 20260502211554 | 53 | 288 | 1.0 | 9.0 | 0.00 | 0.00 | 0.00 | 46 | 1013.7 |
| 20260502210054 | 53 | 223 | 3.0 | 10.0 | 0.00 | 0.00 | 0.00 | 46 | 1013.3 |
| 20260502204602 | 52 | 252 | 2.0 | 11.0 | 0.00 | 0.00 | 0.00 | 46 | 1013.4 |